This is the latest recevied weather packets stored in our database for station/object SV7RNH. If no packets are shown the sender has not sent any weather packets the latest 10 day(s).
| Time | Temp. | Humidity | Pressure | Rain* | Wind** | Luminosity | Snow |
|---|---|---|---|---|---|---|---|
| 1777241404 | 20.56° C | 28% | 1017.2 hPa | 0 mm | - | - | - |
| 1777241104 | 20° C | 29% | 1017.2 hPa | 0 mm | - | - | - |
| 1777240803 | 19.44° C | 35% | 1017 hPa | 0 mm | - | - | - |
| 1777240504 | 19.44° C | 35% | 1017 hPa | 0 mm | - | - | - |
| 1777240204 | 19.44° C | 33% | 1017 hPa | 0 mm | - | - | - |
| 1777239904 | 19.44° C | 35% | 1016.9 hPa | 0 mm | - | - | - |
| 1777239604 | 19.44° C | 35% | 1017 hPa | 0 mm | - | - | - |
| 1777239303 | 19.44° C | 36% | 1016.9 hPa | 0 mm | - | - | - |
| 1777239003 | 19.44° C | 36% | 1016.8 hPa | 0 mm | - | - | - |
| 1777238704 | 19.44° C | 35% | 1016.8 hPa | 0 mm | - | - | - |
| 1777238404 | 19.44° C | 35% | 1016.7 hPa | 0 mm | - | - | - |
| 1777238104 | 19.44° C | 36% | 1016.6 hPa | 0 mm | - | - | - |
| 1777237803 | 19.44° C | 36% | 1016.6 hPa | 0 mm | - | - | - |
| 1777237504 | 18.89° C | 37% | 1016.6 hPa | 0 mm | - | - | - |
| 1777237204 | 18.89° C | 37% | 1016.5 hPa | 0 mm | - | - | - |
| 1777236903 | 19.44° C | 36% | 1016.4 hPa | 0 mm | - | - | - |
| 1777236603 | 19.44° C | 36% | 1016.4 hPa | 0 mm | - | - | - |
| 1777236303 | 19.44° C | 36% | 1016.3 hPa | 0 mm | - | - | - |
| 1777236004 | 19.44° C | 34% | 1016.1 hPa | 0 mm | - | - | - |
| 1777235705 | 19.44° C | 34% | 1016.1 hPa | 0 mm | - | - | - |
| 1777235403 | 19.44° C | 34% | 1016.1 hPa | 0 mm | - | - | - |
| 1777235104 | 19.44° C | 34% | 1016.2 hPa | 0 mm | - | - | - |
| 1777234803 | 19.44° C | 34% | 1016.1 hPa | 0 mm | - | - | - |
| 1777234503 | 20° C | 33% | 1016.1 hPa | 0 mm | - | - | - |
| 1777234203 | 20° C | 33% | 1016.1 hPa | 0 mm | - | - | - |
* Rain latest hour (hover to see other rain measurements)
** Current wind speed in m/s (hover to see current wind gust speed)